This is the latest recevied weather packets stored in our database for station/object KA4YMY. If no packets are shown the sender has not sent any weather packets the latest 10 day(s).
| Time | Temp. | Humidity | Pressure | Rain* | Wind** | Luminosity | Snow |
|---|---|---|---|---|---|---|---|
| 1787766017 | 30° C | 64% | 1017 hPa | 0 mm | - | - | - |
| 1787765417 | 30.56° C | 64% | 1017.3 hPa | 0 mm | - | - | - |
| 1787764817 | 30° C | 68% | 1017.5 hPa | 0 mm | - | - | - |
| 1787764217 | 29.44° C | 68% | 1017.6 hPa | 0 mm | - | - | - |
| 1787763617 | 30° C | 67% | 1017.7 hPa | 0 mm | - | - | - |
| 1787763017 | 30° C | 67% | 1018 hPa | 0 mm | - | - | - |
| 1787762417 | 30° C | 67% | 1017.9 hPa | 0 mm | - | - | - |
| 1787761817 | 29.44° C | 68% | 1018 hPa | 0 mm | - | - | - |
| 1787761220 | 29.44° C | 69% | 1018.3 hPa | 0 mm | - | - | - |
| 1787760617 | 29.44° C | 69% | 1018.4 hPa | 0 mm | - | - | - |
| 1787760017 | 29.44° C | 73% | 1018.6 hPa | 0 mm | - | - | - |
| 1787759417 | 28.89° C | 75% | 1018.7 hPa | 0 mm | - | - | - |
| 1787758817 | 28.33° C | 77% | 1018.8 hPa | 0 mm | - | - | - |
| 1787758217 | 27.78° C | 79% | 1018.9 hPa | 0 mm | - | - | - |
| 1787757617 | 27.78° C | 79% | 1018.9 hPa | 0 mm | - | - | - |
| 1787757020 | 27.22° C | 81% | 1018.8 hPa | 0 mm | - | - | - |
| 1787756417 | 26.67° C | 83% | 1018.8 hPa | 0 mm | - | - | - |
| 1787755817 | 26.11° C | 84% | 1018.7 hPa | 0 mm | - | - | - |
| 1787755217 | 25.56° C | 86% | 1018.8 hPa | 0 mm | - | - | - |
| 1787754617 | 24.44° C | 88% | 1018.9 hPa | 0 mm | - | - | - |
| 1787754017 | 23.89° C | 88% | 1019.1 hPa | 0 mm | - | - | - |
| 1787753417 | 23.33° C | 88% | 1019 hPa | 0 mm | - | - | - |
| 1787752817 | 23.33° C | 89% | 1019.1 hPa | 0 mm | - | - | - |
| 1787752217 | 22.78° C | 88% | 1019 hPa | 0 mm | - | - | - |
| 1787751617 | 22.78° C | 89% | 1019 hPa | 0 mm | - | - | - |
* Rain latest hour (hover to see other rain measurements)
** Current wind speed in m/s (hover to see current wind gust speed)